FW6795 Weather Reports


Display with metric or nautical units.
time (UTC)temp
F
wind
direction
speed
MPH
gust
MPH
rain 1hr
in
rain 24hr
in
rain mn
in
humidity
%
barometer
mb
20260502221558 51 190 3.0 12.0 0.00 0.00 0.00 50 1012.7
20260502221048 51 190 4.0 12.0 0.00 0.00 0.00 48 1012.7
20260502220548 52 190 5.0 13.0 0.00 0.00 0.00 49 1012.5
20260502215548 52 190 5.0 11.0 0.00 0.00 0.00 48 1012.4
20260502215047 52 190 3.0 12.0 0.00 0.00 0.00 47 1012.4
20260502214555 52 190 3.0 17.0 0.00 0.00 0.00 50 1012.4
20260502214048 52 190 5.0 17.0 0.00 0.00 0.00 49 1012.4
20260502213548 51 190 7.0 15.0 0.00 0.00 0.00 48 1012.3
20260502213104 51 190 4.0 14.0 0.00 0.00 0.00 51 1012.3
20260502212549 50 190 2.0 8.0 0.00 0.00 0.00 51 1012.1
20260502212049 50 190 3.0 12.0 0.00 0.00 0.00 49 1012.2
20260502211557 50 190 2.0 13.0 0.00 0.00 0.00 49 1012.1
20260502211048 51 190 6.0 14.0 0.00 0.00 0.00 48 1012.1
20260502210548 51 190 6.0 14.0 0.00 0.00 0.00 48 1012.1
20260502210059 52 190 4.0 10.0 0.00 0.00 0.00 48 1012.0
20260502205548 52 190 3.0 14.0 0.00 0.00 0.00 49 1012.0
20260502205048 52 190 3.0 19.0 0.00 0.00 0.00 48 1011.8
20260502204604 52 190 8.0 20.0 0.00 0.00 0.00 47 1011.8
20260502204048 53 190 7.0 20.0 0.00 0.00 0.00 45 1011.7
20260502203548 53 190 10.0 20.0 0.00 0.00 0.00 47 1011.7
20260502203119 53 190 5.0 13.0 0.00 0.00 0.00 47 1011.6
20260502202548 53 190 3.0 16.0 0.00 0.00 0.00 48 1011.8
20260502202051 53 190 4.0 16.0 0.00 0.00 0.00 46 1011.9
20260502201620 53 190 7.0 14.0 0.00 0.00 0.00 47 1012.0
20260502201051 53 190 8.0 15.0 0.00 0.00 0.00 45 1012.0
20260502200548 53 190 6.0 15.0 0.00 0.00 0.00 46 1012.1
20260502200116 53 190 2.0 9.0 0.00 0.00 0.00 48 1012.0
20260502195547 53 190 3.0 9.0 0.00 0.00 0.00 47 1012.1
20260502195048 53 190 4.0 12.0 0.00 0.00 0.00 47 1012.2
20260502194602 52 190 6.0 12.0 0.00 0.00 0.00 46 1012.1
20260502194048 52 190 5.0 16.0 0.00 0.00 0.00 46 1012.1
20260502193548 53 190 7.0 16.0 0.00 0.00 0.00 45 1012.2
20260502193109 53 190 7.0 16.0 0.00 0.00 0.00 46 1012.1
20260502192549 53 190 5.0 13.0 0.00 0.00 0.00 44 1012.2
20260502192048 52 190 5.0 14.0 0.00 0.00 0.00 45 1012.1
20260502191553 53 190 6.0 18.0 0.00 0.00 0.00 44 1012.1
20260502191048 53 190 10.0 19.0 0.00 0.00 0.00 45 1012.2
20260502190548 54 190 6.0 19.0 0.00 0.00 0.00 43 1012.0
20260502190052 54 190 8.0 17.0 0.00 0.00 0.00 45 1012.0
20260502185548 54 190 6.0 12.0 0.00 0.00 0.00 48 1012.0
20260502185048 54 190 3.0 9.0 0.00 0.00 0.00 45 1012.1
20260502184557 54 190 2.0 10.0 0.00 0.00 0.00 47 1012.2
20260502184048 54 190 4.0 10.0 0.00 0.00 0.00 48 1012.3
20260502183548 53 190 3.0 17.0 0.00 0.00 0.00 47 1012.3
20260502183055 52 190 4.0 18.0 0.00 0.00 0.00 47 1012.4
20260502182548 52 190 10.0 18.0 0.00 0.00 0.00 47 1012.5
20260502182048 52 190 9.0 16.0 0.00 0.00 0.00 47 1012.4
20260502181551 52 190 6.0 16.0 0.00 0.00 0.00 45 1012.6
20260502181048 51 190 7.0 26.0 0.00 0.00 0.00 50 1012.5
20260502180548 51 190 6.0 26.0 0.00 0.00 0.00 51 1012.7
20260502164048 49 190 8.0 15.0 0.00 0.00 0.00 54 1013.6
20260502163547 49 190 5.0 8.0 0.00 0.00 0.00 56 1013.7
20260502163100 48 190 2.0 12.0 0.00 0.00 0.00 56 1014.0
20260502162548 48 190 7.0 12.0 0.00 0.00 0.00 58 1014.1
20260502162050 48 190 0.0 14.0 0.00 0.00 0.00 61 1014.1
20260502161555 47 190 4.0 14.0 0.00 0.00 0.00 59 1014.1
20260502161048 47 190 3.0 13.0 0.00 0.00 0.00 60 1014.1
20260502160548 47 190 7.0 13.0 0.00 0.00 0.00 60 1014.3
20260502152049 46 190 1.0 9.0 0.00 0.00 0.00 65 1014.3
20260502151609 45 190 2.0 11.0 0.00 0.00 0.00 64 1014.2
20260502151048 45 190 4.0 11.0 0.00 0.00 0.00 65 1014.2
20260502150547 45 190 4.0 11.0 0.00 0.00 0.00 65 1014.2
20260502130549 42 190 2.0 10.0 0.00 0.00 0.00 69 1014.2
20260502123547 42 190 2.0 10.0 0.00 0.00 0.00 70 1013.8
20260502123051 42 190 3.0 12.0 0.00 0.00 0.00 69 1013.6
20260502122548 42 190 4.0 15.0 0.00 0.00 0.00 69 1013.7
20260502122047 42 190 6.0 15.0 0.00 0.00 0.00 69 1013.9
20260502121549 42 190 3.0 9.0 0.00 0.00 0.00 70 1013.9
20260502121048 42 190 4.0 9.0 0.00 0.00 0.00 69 1014.1
20260502120547 42 190 4.0 10.0 0.00 0.00 0.00 70 1014.1
20260502115547 41 190 4.0 12.0 0.00 0.00 0.00 69 1014.1
20260502115048 41 190 5.0 12.0 0.00 0.00 0.00 69 1013.9
20260502114550 41 190 4.0 12.0 0.00 0.00 0.00 69 1013.9
20260502114048 41 190 4.0 11.0 0.00 0.00 0.00 69 1013.8
20260502113548 41 190 6.0 12.0 0.00 0.00 0.00 69 1013.6
20260502113102 41 190 5.0 12.0 0.00 0.00 0.00 69 1013.7
20260502112549 41 190 6.0 11.0 0.00 0.00 0.00 68 1013.7
20260502112048 41 190 6.0 9.0 0.00 0.00 0.00 68 1013.5
20260502111549 41 190 5.0 9.0 0.00 0.00 0.00 68 1013.4
20260502111103 41 190 3.0 9.0 0.00 0.00 0.00 68 1013.6
20260502110548 41 190 4.0 8.0 0.00 0.00 0.00 68 1013.5
20260502110050 41 190 4.0 9.0 0.00 0.00 0.00 68 1013.6
20260502105548 41 190 4.0 9.0 0.00 0.00 0.00 67 1013.5
20260502105050 41 190 5.0 10.0 0.00 0.00 0.00 67 1013.4
20260502104557 41 190 5.0 10.0 0.00 0.00 0.00 67 1013.6
20260502104047 42 190 4.0 9.0 0.00 0.00 0.00 66 1013.5
20260502103547 42 190 4.0 7.0 0.00 0.00 0.00 66 1013.5
20260502103047 42 190 4.0 12.0 0.00 0.00 0.00 66 1013.6
20260502102549 42 190 4.0 12.0 0.00 0.00 0.00 66 1013.7
20260502102047 42 190 5.0 9.0 0.00 0.00 0.00 66 1013.8
20260502101603 42 190 5.0 8.0 0.00 0.00 0.00 66 1013.7
20260502101047 42 190 5.0 9.0 0.00 0.00 0.00 65 1013.7
20260502100548 42 190 5.0 9.0 0.00 0.00 0.00 66 1013.8
20260502091048 43 190 5.0 9.0 0.00 0.00 0.00 73 1013.9
20260502090549 43 190 4.0 11.0 0.00 0.00 0.00 74 1013.8
20260502071048 45 190 5.0 12.0 0.00 0.00 0.00 78 1013.1
20260502070548 45 190 5.0 12.0 0.00 0.00 0.00 78 1013.0
20260502070111 45 190 4.0 11.0 0.00 0.00 0.00 78 1013.1
20260502065548 45 190 7.0 12.0 0.00 0.00 0.00 78 1013.3
20260502065049 45 190 6.0 12.0 0.00 0.00 0.00 78 1013.3
20260502064552 45 190 7.0 12.0 0.00 0.00 0.00 77 1013.4
20260502064047 45 190 6.0 12.0 0.00 0.00 0.00 77 1013.4
20260502063548 45 190 6.0 12.0 0.00 0.00 0.00 77 1013.5
20260502063113 45 190 5.0 12.0 0.00 0.00 0.00 77 1013.6
20260502062551 45 190 5.0 12.0 0.00 0.00 0.00 77 1013.7
20260502062048 45 190 5.0 10.0 0.00 0.00 0.00 77 1013.7
20260502061550 46 190 6.0 10.0 0.00 0.00 0.00 77 1013.8
20260502061047 46 190 6.0 10.0 0.00 0.00 0.00 77 1013.7
20260502060547 46 190 5.0 10.0 0.00 0.00 0.00 77 1013.8
20260502060056 46 190 5.0 10.0 0.00 0.00 0.00 77 1013.9
20260502055548 46 190 4.0 9.0 0.00 0.00 0.00 77 1013.8
20260502055051 46 190 5.0 9.0 0.00 0.00 0.00 77 1013.8
20260502054603 46 190 5.0 11.0 0.00 0.00 0.00 77 1013.9
20260502054052 47 190 4.0 11.0 0.00 0.00 0.00 77 1014.0
20260502053548 47 190 5.0 9.0 0.00 0.00 0.00 77 1013.9
20260502053052 47 190 4.0 7.0 0.00 0.00 0.00 77 1013.9
20260502052548 47 190 4.0 8.0 0.00 0.00 0.00 77 1013.8
20260502052048 47 190 4.0 11.0 0.00 0.00 0.00 77 1013.8
20260502051553 47 190 4.0 11.0 0.00 0.00 0.00 77 1013.8
20260502051047 48 190 4.0 9.0 0.00 0.00 0.00 77 1013.8
20260502050547 48 190 4.0 9.0 0.00 0.00 0.00 77 1013.7
20260502050054 48 190 4.0 9.0 0.00 0.00 0.00 77 1013.8
20260502045547 48 190 5.0 10.0 0.00 0.00 0.00 77 1013.8
20260502045047 48 190 5.0 13.0 0.00 0.00 0.00 77 1013.8
20260502044550 48 190 7.0 13.0 0.00 0.00 0.00 77 1013.9
20260502044050 48 190 6.0 9.0 0.00 0.00 0.00 76 1013.9
20260502043547 48 190 5.0 9.0 0.00 0.00 0.00 76 1013.9
20260502043110 49 190 5.0 9.0 0.00 0.00 0.00 76 1013.9
20260502042548 49 190 5.0 9.0 0.00 0.00 0.00 76 1014.0
20260502042050 49 190 4.0 9.0 0.00 0.00 0.00 76 1014.1
20260502041614 49 190 5.0 9.0 0.00 0.00 0.00 76 1013.8
20260502041050 49 190 3.0 8.0 0.00 0.00 0.00 76 1013.8
20260502040550 49 190 2.0 5.0 0.00 0.00 0.00 76 1013.8
20260502040057 49 190 2.0 10.0 0.00 0.00 0.00 76 1013.9
20260502035547 50 190 3.0 10.0 0.00 0.00 0.00 75 1014.1
20260502035048 50 190 5.0 10.0 0.00 0.00 0.00 75 1014.1
20260502034550 50 190 5.0 10.0 0.00 0.00 0.00 75 1014.1
20260502034047 50 190 4.0 10.0 0.00 0.00 0.00 74 1014.1
20260502033548 50 190 3.0 10.0 0.00 0.00 0.00 74 1014.1
20260502033053 50 190 4.0 9.0 0.00 0.00 0.00 74 1013.9
20260502032547 51 190 5.0 11.0 0.00 0.00 0.00 73 1013.9
20260502032050 51 190 5.0 11.0 0.00 0.00 0.00 73 1013.9
20260502031551 51 190 5.0 13.0 0.00 0.00 0.00 72 1013.9
20260502031047 51 190 6.0 13.0 0.00 0.00 0.00 72 1013.8
20260502030547 52 190 8.0 13.0 0.00 0.00 0.00 71 1013.6
20260502030109 52 190 6.0 20.0 0.00 0.00 0.00 70 1013.6
20260502025548 52 190 7.0 20.0 0.00 0.00 0.00 69 1013.5
20260502025048 53 190 7.0 20.0 0.00 0.00 0.00 69 1013.4
20260502024604 53 190 6.0 12.0 0.00 0.00 0.00 71 1013.3
20260502024048 53 190 3.0 10.0 0.00 0.00 0.00 74 1013.3
20260502023548 53 190 4.0 10.0 0.00 0.00 0.00 74 1013.2
20260502023125 53 190 4.0 10.0 0.00 0.00 0.00 75 1013.2
20260502022549 53 190 4.0 7.0 0.00 0.00 0.00 74 1012.8
20260502022048 52 190 4.0 5.0 0.00 0.00 0.00 74 1012.7
20260502021552 52 190 2.0 4.0 0.00 0.00 0.00 74 1012.7
20260502021048 52 0 0.0 1.0 0.00 0.00 0.00 74 1012.6
20260502020548 52 190 0.0 1.0 0.00 0.00 0.00 75 1012.6
20260502020052 52 0 0.0 2.0 0.00 0.00 0.00 75 1012.4
20260502015554 52 0 0.0 2.0 0.00 0.00 0.00 76 1012.3
20260502015050 51 190 0.0 1.0 0.00 0.00 0.00 76 1012.3
20260502014603 51 0 0.0 1.0 0.00 0.00 0.00 76 1012.3
20260502014049 51 0 0.0 1.0 0.00 0.00 0.00 76 1012.4
20260502013549 52 190 0.0 1.0 0.00 0.00 0.00 75 1012.3
20260502013057 52 0 0.0 2.0 0.00 0.00 0.00 73 1012.2
20260502012551 53 0 0.0 2.0 0.00 0.00 0.00 71 1012.3
20260502012049 53 0 0.0 2.0 0.00 0.00 0.00 71 1012.3
20260502011605 53 190 0.0 2.0 0.00 0.00 0.00 71 1012.3
20260502011048 53 190 1.0 2.0 0.00 0.00 0.00 71 1012.3
20260502010549 53 190 1.0 2.0 0.00 0.00 0.00 71 1012.2
20260502010052 53 190 0.0 1.0 0.00 0.00 0.00 71 1012.2
20260502005549 53 0 0.0 0.0 0.00 0.00 0.00 70 1012.1
20260502005051 53 0 0.0 2.0 0.00 0.00 0.00 69 1011.9
20260502004551 54 0 0.0 2.0 0.00 0.00 0.00 69 1011.8
20260502004049 54 190 0.0 2.0 0.00 0.00 0.00 69 1011.5
20260502003549 54 190 0.0 3.0 0.00 0.00 0.00 68 1011.6
20260502003053 54 190 0.0 3.0 0.00 0.00 0.00 68 1011.6
20260502002549 54 190 1.0 5.0 0.00 0.00 0.00 67 1011.6
20260502002049 55 190 0.0 5.0 0.00 0.00 0.00 66 1011.4
20260502001559 55 190 1.0 6.0 0.00 0.00 0.00 66 1011.4
20260502001048 55 190 3.0 6.0 0.00 0.00 0.00 65 1011.3
20260502000549 55 190 2.0 5.0 0.00 0.00 0.00 65 1011.3
20260502000100 55 190 2.0 5.0 0.00 0.00 0.00 64 1011.3
20260501235550 56 190 2.0 11.0 0.00 0.00 0.00 63 1011.2
20260501235049 56 190 3.0 11.0 0.00 0.00 0.00 62 1011.0
20260501234556 56 190 6.0 11.0 0.00 0.00 0.00 62 1011.1
20260501234049 57 190 3.0 9.0 0.00 0.00 0.00 61 1011.0
20260501233549 57 190 4.0 9.0 0.00 0.00 0.00 60 1011.0
20260501233119 58 190 4.0 8.0 0.00 0.00 0.00 59 1011.0
20260501232548 58 190 2.0 8.0 0.00 0.00 0.00 58 1011.0
20260501232051 58 190 4.0 8.0 0.00 0.00 0.00 58 1011.0
20260501231628 58 190 2.0 9.0 0.00 0.00 0.00 58 1011.1
20260501231048 58 190 3.0 11.0 0.00 0.00 0.00 58 1011.2
20260501230548 59 190 5.0 11.0 0.00 0.00 0.00 56 1011.2
20260501230123 59 190 3.0 8.0 0.00 0.00 0.00 57 1011.1
20260501225549 59 190 2.0 11.0 0.00 0.00 0.00 58 1011.0
20260501225049 59 190 4.0 14.0 0.00 0.00 0.00 57 1011.0
20260501224610 59 190 5.0 14.0 0.00 0.00 0.00 57 1011.1
20260501224050 59 190 5.0 10.0 0.00 0.00 0.00 58 1011.0
20260501223550 59 190 5.0 12.0 0.00 0.00 0.00 57 1011.0
20260501223102 59 190 4.0 12.0 0.00 0.00 0.00 56 1010.9
20260501222550 60 190 6.0 13.0 0.00 0.00 0.00 55 1011.0
20260501222050 60 190 7.0 13.0 0.00 0.00 0.00 55 1010.9